BMCB-35 Weather Reports


time (UTC)temp
C
wind
direction
speed
KPH
gust
KPH
rain 1hr
cm
rain 24hr
cm
rain mn
cm
humidity
%
barometer
mb
20260506111014 13 258 8.0 14.5 0.00 1.19 0.08 86 1007.1
20260506110012 13 275 6.4 14.5 0.00 1.19 0.08 86 1007.1
20260506105036 13 275 6.4 14.5 0.00 1.24 0.08 85 1007.0
20260506105029 13 275 6.4 14.5 0.00 1.24 0.08 87 1006.9
20260506104031 12 269 6.4 12.9 0.00 1.24 0.08 87 1006.9
20260506103036 13 274 6.4 11.3 0.00 1.24 0.08 88 1006.8
20260506102008 13 271 4.8 9.7 0.03 1.24 0.08 90 1006.6
20260506101004 13 272 6.4 12.9 0.03 1.24 0.08 90 1006.6
20260506100005 12 265 8.0 14.5 0.03 1.24 0.08 90 1006.6
20260506095038 12 265 8.0 14.5 0.03 1.24 0.08 90 1006.6
20260506095031 12 265 8.0 14.5 0.03 1.24 0.08 94 1006.5
20260506094017 12 264 6.4 11.3 0.03 1.24 0.08 94 1006.5
20260506094015 12 264 6.4 11.3 0.03 1.24 0.08 95 1006.5
20260506093043 12 264 6.4 11.3 0.03 1.24 0.08 95 1006.5
20260506093038 12 264 6.4 11.3 0.03 1.24 0.08 95 1006.4
20260506092040 12 272 6.4 12.9 0.03 1.24 0.08 95 1006.4
20260506092034 12 272 6.4 12.9 0.00 1.22 0.05 96 1006.3
20260506091042 12 269 4.8 9.7 0.00 1.22 0.05 96 1006.3
20260506091036 12 269 4.8 9.7 0.00 1.22 0.05 95 1006.3
20260506090040 12 291 4.8 11.3 0.00 1.22 0.05 95 1006.3
20260506090033 12 291 4.8 11.3 0.00 1.22 0.05 93 1006.2
20260506085044 12 287 3.2 9.7 0.00 1.22 0.05 93 1006.2
20260506085039 12 287 3.2 9.7 0.00 1.22 0.05 92 1006.1
20260506084034 12 298 4.8 14.5 0.00 1.22 0.05 92 1006.1
20260506083042 12 280 4.8 11.3 0.00 1.22 0.05 92 1006.1
20260506083037 12 280 4.8 11.3 0.00 1.22 0.05 93 1006.0
20260506082014 12 282 4.8 11.3 0.00 1.22 0.05 93 1006.0
20260506082012 12 282 4.8 11.3 0.00 1.22 0.05 92 1005.9
20260506081014 12 278 6.4 9.7 0.00 1.22 0.05 93 1005.9
20260506073046 12 281 6.4 11.3 0.00 1.22 0.05 96 1006.0
20260506073040 11 281 6.4 11.3 0.00 1.22 0.05 97 1006.0
20260506072004 11 308 4.8 11.3 0.00 1.22 0.05 98 1006.1
20260506062037 11 318 1.6 4.8 0.05 1.22 0.05 99 1006.1
20260506062031 11 318 1.6 4.8 0.05 1.22 0.05 99 1006.1
20260506061005 10 346 1.6 6.4 0.05 1.22 0.05 98 1006.0
20260506051025 10 354 1.6 9.7 0.00 1.17 0.03 98 1005.9
20260506045037 10 17 1.6 3.2 0.00 1.17 0.03 97 1005.8
20260506044016 10 3 3.2 6.4 0.00 1.17 0.03 97 1005.8
20260506043024 10 3 3.2 6.4 0.00 1.17 0.03 97 1006.0
20260506042028 10 24 1.6 6.4 0.00 1.17 0.03 97 1006.0
20260506041029 10 316 1.6 4.8 0.00 1.17 0.03 97 1006.0
20260506040042 10 4 1.6 4.8 0.00 1.17 0.03 97 1006.0
20260506040037 10 4 1.6 4.8 0.00 1.17 0.03 97 1006.1
20260506035036 10 11 1.6 4.8 0.00 1.17 0.03 97 1006.2
20260506034005 10 4 1.6 3.2 0.00 1.17 0.03 97 1006.2
20260506033042 10 4 1.6 3.2 0.00 1.17 0.03 97 1006.3
20260506033038 10 4 1.6 3.2 0.00 1.17 0.03 97 1006.4
20260506032038 10 74 1.6 6.4 0.00 1.17 0.03 97 1006.4
20260506032033 10 74 1.6 6.4 0.00 1.17 0.03 98 1006.5
20260506031003 10 55 1.6 6.4 0.00 1.17 0.03 98 1006.5
20260506030004 10 103 1.6 6.4 0.00 1.17 0.03 98 1006.5
20260506025034 11 103 1.6 6.4 0.00 1.17 0.03 99 1006.4
20260506024024 11 66 1.6 4.8 0.00 1.17 0.03 99 1006.4
20260506023043 11 94 1.6 3.2 0.00 1.17 0.03 99 1006.3
20260506022035 11 93 1.6 4.8 0.00 1.17 0.03 99 1006.3
20260506021012 11 75 1.6 4.8 0.00 1.17 0.03 99 1006.3
20260506020011 11 70 0.0 3.2 0.00 1.17 0.03 99 1006.3
20260506015040 11 70 0.0 3.2 0.00 1.17 0.03 99 1006.3
20260506015035 11 70 0.0 3.2 0.00 1.17 0.03 99 1006.3
20260506014044 11 94 0.0 4.8 0.00 1.17 0.03 99 1006.3
20260506014039 11 94 0.0 4.8 0.00 1.17 0.03 99 1006.4
20260506013033 11 50 0.0 3.2 0.00 1.17 0.03 99 1006.5
20260506012023 11 327 1.6 6.4 0.00 1.17 0.03 99 1006.6
20260506011005 11 74 1.6 6.4 0.03 1.17 0.03 99 1006.7
20260506010037 11 74 1.6 6.4 0.03 1.17 0.03 99 1006.7
20260506010031 11 74 1.6 6.4 0.03 1.17 0.03 10 1006.9
20260506005009 11 19 1.6 4.8 0.03 1.17 0.03 99 1007.0
20260506004034 11 19 1.6 4.8 0.03 1.17 0.03 99 1007.0
20260506004029 11 19 1.6 4.8 0.03 1.17 0.03 10 1007.0
20260506003043 11 42 0.0 3.2 0.03 1.17 0.03 10 1007.1
20260506002042 11 26 1.6 4.8 0.03 1.17 0.03 10 1007.3
20260506001035 11 72 0.0 4.8 0.03 1.17 0.03 10 1007.3
20260506001029 10 72 0.0 4.8 0.00 1.17 0.00 10 1007.4
20260506000010 10 12 0.0 1.6 0.00 1.17 0.00 10 1007.4
20260505235017 10 45 0.0 3.2 0.00 1.17 0.00 10 1007.4
20260505235015 11 45 0.0 3.2 0.00 1.17 0.00 10 1007.4
20260505234137 10 45 0.0 3.2 0.00 1.17 0.00 10 1007.5
20260505233038 10 69 1.6 3.2 0.00 1.17 0.00 10 1007.5
20260505232030 10 113 1.6 3.2 0.00 1.17 0.00 10 1007.5
20260505231004 10 138 0.0 0.0 0.00 1.17 0.00 10 1007.5
20260505230008 10 138 0.0 0.0 0.00 1.17 0.00 10 1007.5
20260505225016 10 154 0.0 0.0 0.00 1.17 0.00 10 1007.5
20260505225013 10 154 0.0 0.0 0.00 1.17 0.00 10 1007.4
20260505224015 11 158 0.0 0.0 0.00 1.17 0.00 10 1007.5
20260505223015 11 99 1.6 1.6 0.00 1.17 0.00 10 1007.5
20260505222043 11 102 0.0 1.6 0.00 1.17 0.00 10 1007.5
20260505222036 11 102 0.0 1.6 0.00 1.17 0.00 10 1007.6
20260505221049 11 124 0.0 0.0 0.00 1.17 0.00 10 1007.6
20260505221043 11 124 0.0 0.0 0.00 1.17 0.00 10 1007.7
20260505220008 11 141 0.0 0.0 0.00 1.17 0.00 10 1007.7
20260505220005 11 131 0.0 0.0 0.00 1.17 0.00 10 1007.7
20260505215036 11 131 0.0 0.0 0.00 1.17 1.17 10 1007.7
20260505214047 11 126 0.0 0.0 0.00 1.17 1.17 10 1007.7
20260505214038 11 126 0.0 0.0 0.00 1.17 1.17 10 1007.7
20260505213041 11 133 0.0 0.0 0.00 1.17 1.17 10 1007.7
20260505212005 11 155 0.0 0.0 0.00 1.17 1.17 10 1007.7
20260505211041 12 155 0.0 0.0 0.00 1.17 1.17 99 1007.8
20260505210013 12 129 0.0 0.0 0.00 1.17 1.17 99 1007.8
20260505210011 12 129 0.0 0.0 0.00 1.17 1.17 99 1007.7
20260505205043 12 141 0.0 3.2 0.00 1.17 1.17 99 1007.7
20260505205037 12 141 0.0 3.2 0.00 1.17 1.17 97 1007.8
20260505203048 12 244 1.6 4.8 0.00 1.17 1.17 97 1007.8
20260505203039 12 244 1.6 4.8 0.00 1.17 1.17 98 1007.7
20260505202016 12 38 1.6 3.2 0.00 1.17 1.17 98 1007.7
20260505201011 12 83 0.0 4.8 0.00 1.17 1.17 98 1007.6
20260505200007 12 81 0.0 1.6 0.03 1.17 1.17 98 1007.6
20260505200005 12 81 0.0 1.6 0.03 1.17 1.17 98 1007.5
20260505194027 12 114 0.0 4.8 0.05 1.17 1.17 10 1007.3
20260505193044 12 132 0.0 0.0 0.15 1.17 1.17 10 1007.3
20260505193035 12 132 0.0 0.0 0.15 1.17 1.17 10 1007.2
20260505192011 12 125 0.0 0.0 0.15 1.17 1.17 10 1007.2
20260505191011 12 112 0.0 0.0 0.25 1.17 1.17 10 1007.1
20260505190046 12 130 0.0 0.0 0.51 1.17 1.17 10 1007.1
20260505190037 12 130 0.0 0.0 0.48 1.14 1.14 10 1007.1
20260505185049 12 92 0.0 0.0 0.58 1.12 1.12 10 1007.1
20260505185044 12 92 0.0 0.0 0.56 1.09 1.09 10 1007.1
20260505184038 12 96 0.0 0.0 0.71 1.09 1.09 99 1007.1
20260505183009 12 39 0.0 0.0 0.79 1.09 1.09 99 1007.1
20260505181036 13 89 0.0 3.2 0.64 0.89 0.89 98 1007.1
20260505180013 13 82 1.6 6.4 0.51 0.79 0.79 98 1007.1
20260505175022 13 72 0.0 3.2 0.41 0.66 0.66 98 1007.1
20260505175014 13 72 0.0 3.2 0.28 0.53 0.53 96 1007.2
20260505174033 13 59 1.6 3.2 0.28 0.53 0.53 96 1007.2
20260505174024 13 59 1.6 3.2 0.13 0.38 0.38 96 1007.2
20260505173004 13 142 0.0 1.6 0.05 0.30 0.30 95 1007.2
20260505172045 13 142 0.0 1.6 0.00 0.25 0.25 94 1007.3
20260505171045 13 147 0.0 3.2 0.00 0.25 0.25 93 1007.3
20260505165005 13 178 0.0 0.0 0.00 0.25 0.25 93 1007.3
20260505164012 14 178 0.0 0.0 0.00 0.25 0.25 91 1007.3
20260505163045 14 153 0.0 0.0 0.00 0.25 0.25 88 1007.3
20260505162004 14 78 1.6 3.2 0.00 0.25 0.25 85 1007.3
20260505161023 14 78 1.6 3.2 0.00 0.25 0.25 87 1007.4
20260505153019 13 83 1.6 4.8 0.03 0.25 0.25 89 1007.7
20260505152038 13 87 1.6 3.2 0.03 0.25 0.25 91 1007.7
20260505151039 13 99 1.6 3.2 0.03 0.25 0.25 91 1007.8
20260505125012 13 58 1.6 3.2 0.08 0.15 0.15 88 1008.7
20260505124009 13 289 3.2 6.4 0.05 0.13 0.13 87 1008.8
20260505123029 13 289 3.2 6.4 0.08 0.13 0.13 89 1008.8
20260505122009 13 284 1.6 3.2 0.08 0.13 0.13 89 1008.9
20260505121039 13 284 1.6 3.2 0.05 0.10 0.10 89 1008.9
20260505121030 13 284 1.6 3.2 0.05 0.08 0.08 88 1009.0
20260505120006 13 310 3.2 4.8 0.03 0.05 0.05 88 1009.1
20260505115012 13 310 3.2 4.8 0.05 0.05 0.05 88 1009.1
20260505114024 13 90 3.2 9.7 0.05 0.05 0.05 88 1009.1
20260505113022 13 13 1.6 6.4 0.05 0.05 0.05 88 1009.1
20260505113017 13 13 1.6 6.4 0.05 0.05 0.05 90 1009.1